Harlingen, TX

2:52 PM CDT on May 25, 2017 (GMT -0500)
Valley International

Weather History for KHRL - September, 2012

Change the Weather History Date:

Friday, September 14, 2012

  Actual Average Record
Temperature  
Mean Temperature 82 °F 82 °F  
Max Temperature 91 °F 92 °F 101 °F (1950)
Min Temperature 73 °F 73 °F 62 °F (1945)
Degree Days  
Heating Degree Days 0 0  
Month to date heating degree days 0 0  
Since 1 July heating degree days 0 0  
Cooling Degree Days 17 17  
Month to date cooling degree days 279 256  
Year to date cooling degree days 3841 3180  
Growing Degree Days 31 (Base 50)    
Moisture  
Dew Point 69 °F    
Average Humidity 67    
Maximum Humidity 87    
Minimum Humidity 47    
Precipitation  
Precipitation T in 0.20 in 3.61 in (1961)
Month to date precipitation 0.77 2.51  
Year to date precipitation 12.14 16.72  
Sea Level Pressure  
Sea Level Pressure 30.06 in    
Wind  
Wind Speed 8 mph (NNE)    
Max Wind Speed 20 mph    
Max Gust Speed 25 mph    
Visibility 10 miles    
Events Rain    
T = Trace of Precipitation, MM = Missing Value Source: NWS Daily Summary

Daily Weather History Graph

Daily Weather History Graph

Search for Another Location

Airport or City:

Trip Planner

Search our weather history database for the weather conditions in past years. The results will help you decide how hot, cold, wet, or windy it might be!

Date:

Astronomy

Sep. 14, 2012 Rise Set
Actual Time 7:16 AM CDT 7:35 PM CDT
Civil Twilight 6:52 AM CDT 7:58 PM CDT
Nautical Twilight 6:25 AM CDT 8:25 PM CDT
Astronomical Twilight 5:58 AM CDT 8:52 PM CDT
Moon 5:46 AM CDT (9/14) 6:31 PM CDT (9/14)
Length of Visible Light 13h 05m
Length of Day
12h 19m
Waning Crescent, 2% of the Moon is Illuminated
Sep 14
Waning Crescent
Sep 15
New
Sep 22
First Quarter
Sep 29
Full
Oct 8
Last Quarter

Hourly Weather History & Observations

Time (CDT) Temp. Heat Index Dew Point Humidity Pressure Visibility Wind Dir Wind Speed Gust Speed Precip Events Conditions
12:52 AM 73.0 °F - 66.9 °F 81% 30.06 in 10.0 mi Calm Calm - N/A   Partly Cloudy
1:52 AM 75.9 °F - 69.1 °F 79% 30.06 in 10.0 mi Calm Calm - N/A   Scattered Clouds
2:52 AM 75.9 °F - 69.1 °F 79% 30.04 in 10.0 mi Calm Calm - N/A   Partly Cloudy
3:52 AM 75.9 °F - 70.0 °F 82% 30.02 in 10.0 mi NNW 3.5 mph - N/A   Partly Cloudy
4:52 AM 75.9 °F - 68.0 °F 76% 30.03 in 10.0 mi SE 12.7 mph - N/A   Mostly Cloudy
5:52 AM 73.9 °F - 68.0 °F 82% 30.04 in 10.0 mi SSE 10.4 mph - N/A   Scattered Clouds
6:52 AM 73.9 °F - 69.1 °F 85% 30.05 in 10.0 mi ESE 5.8 mph - N/A   Mostly Cloudy
7:52 AM 73.9 °F - 69.1 °F 85% 30.06 in 10.0 mi Calm Calm - 0.00 in Rain Light Rain
8:52 AM 75.9 °F - 69.1 °F 79% 30.07 in 10.0 mi Calm Calm - 0.00 in   Scattered Clouds
9:52 AM 81.0 °F 82.7 °F 64.9 °F 58% 30.09 in 10.0 mi West 5.8 mph - N/A   Clear
10:52 AM 84.2 °F 86.6 °F 66.2 °F 55% 30.10 in 10.0 mi NW 6.9 mph - N/A   Clear
11:19 AM 86.0 °F 88.2 °F 66.2 °F 51% 30.11 in 10.0 mi NW 11.5 mph - N/A   Partly Cloudy
11:52 AM 87.1 °F 89.2 °F 66.0 °F 49% 30.10 in 10.0 mi NNW 8.1 mph - N/A   Clear
12:52 PM 89.1 °F 92.1 °F 66.9 °F 48% 30.09 in 10.0 mi Variable 6.9 mph - N/A   Clear
1:52 PM 87.8 °F 91.4 °F 68.0 °F 52% 30.07 in 10.0 mi ENE 8.1 mph - N/A   Clear
2:52 PM 88.0 °F 92.1 °F 69.1 °F 53% 30.04 in 10.0 mi East 8.1 mph 16.1 mph N/A   Mostly Cloudy
3:52 PM 86.0 °F 90.7 °F 70.0 °F 59% 30.02 in 10.0 mi NNE 13.8 mph 24.2 mph N/A   Overcast
4:52 PM 87.1 °F 92.0 °F 70.0 °F 57% 30.01 in 10.0 mi NE 12.7 mph - 0.00 in   Clear
5:52 PM 88.0 °F 92.9 °F 70.0 °F 55% 30.01 in 10.0 mi ENE 17.3 mph 24.2 mph N/A   Partly Cloudy
6:52 PM 82.0 °F 85.9 °F 70.0 °F 67% 30.02 in 10.0 mi NE 16.1 mph - N/A   Clear
7:52 PM 80.1 °F 83.6 °F 71.1 °F 74% 30.03 in 10.0 mi NE 15.0 mph - N/A   Clear
8:52 PM 78.1 °F - 70.0 °F 76% 30.05 in 10.0 mi NE 5.8 mph - N/A   Clear
9:52 PM 77.0 °F - 70.0 °F 79% 30.08 in 10.0 mi North 6.9 mph - N/A   Partly Cloudy
10:52 PM 77.0 °F - 71.1 °F 82% 30.09 in 10.0 mi NNE 5.8 mph - N/A   Clear
11:52 PM 75.9 °F - 71.1 °F 85% 30.09 in 10.0 mi NNW 6.9 mph - N/A   Clear